This demonstration page uses our WeatherBlox Daily Observations layout. Learn more.

Left ArrowRight Arrow

Hourly Observations for April 8, 2015

Temp ( °F °C ) Dew Point ( °F °C ) Humidity (%) Winds ( mph kmh ) Pressure ( in mb ) Visibility ( mi km ) Precip ( " mm )
12:01 am 00:01 Clear with Mist and Fog 56 13.3 56 13.3 100 100 Calm 30.09 1019 1.25 2.011675 0 0
12:07 am 00:07 Mostly Cloudy with Mist and Fog 56 13.3 55 12.8 97 97 Calm 30.09 1019 0.75 1.207005 0 0
12:53 am 00:53 Mostly Cloudy with Fog 52 11.1 52 11.1 100 100 Calm 30.05 1018 5 8.0467 0 0
1:53 am 01:53 Mostly Cloudy with Fog 52 11.1 52 11.1 100 100 Calm 30.05 1018 0.25 0.402335 0 0
2:35 am 02:35 Mostly Cloudy with Fog 53 11.7 52 11.1 96 96 Calm 30.06 1018 0.25 0.402335 0 0
2:48 am 02:48 Mostly Cloudy with Mist and Fog 52 11 52 11 100 100 Calm 30.06 1018 1.75 2.816345 0 0
2:55 am 02:55 Cloudy with Mist and Fog 53 11.7 53 11.7 100 100 E 3 6 30.06 1018 0.75 1.207005 0 0
3:04 am 03:04 Mostly Cloudy with Mist and Fog 53 11.7 53 11.7 100 100 Calm 30.06 1018 1.75 2.816345 0 0
3:07 am 03:07 Mostly Cloudy with Mist and Fog 53 11.7 53 11.7 100 100 Calm 30.06 1018 3 4.82802 0 0
3:24 am 03:24 Mostly Cloudy with Mist and Fog 53 11.7 53 11.7 100 100 Calm 30.09 1019 1.5 2.41401 0 0
3:36 am 03:36 Cloudy with Mist and Fog 53 11.7 53 11.7 100 100 Calm 30.06 1018 2 3.21868 0 0
3:53 am 03:53 Cloudy with Mist and Fog 54 12.2 54 12.2 100 100 Calm 30.04 1017 2.5 4.02335 0 0
4:01 am 04:01 Cloudy 55 12.8 55 12.8 100 100 Calm 30.06 1018 7 11.26538 0 0
4:53 am 04:53 Partly Cloudy with Mist and Fog 55 12.8 55 12.8 100 100 E 5 7 30.01 1016 5 8.0467 0 0
5:53 am 05:53 Clear with Mist and Fog 55 12.8 55 12.8 100 100 ESE 5 7 29.99 1016 5 8.0467 0 0
6:53 am 06:53 Mostly Cloudy 56 13.3 55 12.8 97 97 ESE 3 6 30 1016 7 11.26538 0 0
7:53 am 07:53 Mostly Cloudy with Mist and Fog 57 13.9 56 13.3 96 96 ESE 3 6 29.99 1016 6 9.65604 0 0
8:53 am 08:53 Cloudy 60 15.6 59 15 96 96 ESE 3 6 30 1016 7 11.26538 0 0
9:22 am 09:22 Cloudy with Mist and Fog 61 16.1 59 15 93 93 Calm 30 1016 6 9.65604 0 0
9:43 am 09:43 Cloudy 61 16.1 59 15 93 93 ESE 3 6 30 1016 7 11.26538 0 0
9:53 am 09:53 Cloudy 62 16.7 60 15.6 93 93 E 3 6 30.02 1017 7 11.26538 0 0
10:31 am 10:31 Cloudy with Nearby Thunderstorms 63 17.2 61 16.1 93 93 W 8 13 30.06 1018 4 6.43736 0 0.0254
10:43 am 10:43 Cloudy with Heavy Thunderstorms 57 13.9 55 12.8 93 93 NW 21 33 30.12 1020 1.75 2.816345 0.18 4.572
10:49 am 10:49 Cloudy with Heavy Thunderstorms 55 13 54 12 94 94 NNW 8 13 30.09 1019 2 3.21868 0.25 6.35
10:53 am 10:53 Cloudy with Heavy Thunderstorms 56 13.3 54 12.2 93 93 N 8 13 30.05 1018 2.5 4.02335 0.28 7.112
11:01 am 11:01 Cloudy with Thunderstorms 56 13.3 54 12.2 93 93 VRB 5 7 30.09 1019 4 6.43736 0.02 0.508
11:17 am 11:17 Cloudy with Nearby Thunderstorms 56 13.3 55 12.8 97 97 S 8 13 30.09 1019 6 9.65604 0.04 1.016
11:30 am 11:30 Cloudy with Light Thunderstorms 56 13.3 54 12.2 93 93 ENE 10 17 30.03 1017 7 11.26538 0.05 1.27
11:45 am 11:45 Mostly Cloudy with Nearby Thunderstorms 56 13.3 55 12.8 97 97 VRB 5 7 30.03 1017 9 14.48406 0.07 1.778
11:53 am 11:53 Mostly Cloudy with Light Rain 56 13.3 55 12.8 97 97 S 9 15 30.02 1017 10 16.0934 0.07 1.778
12:53 pm 12:53 Mostly Sunny 62 16.7 57 13.9 84 84 VRB 5 7 30.03 1017 10 16.0934 0 0.0254
1:53 pm 13:53 Sunny 65 18.3 56 13.3 73 73 SE 8 13 30.01 1016 10 16.0934 0 0
2:53 pm 14:53 Cloudy 69 20.6 57 13.9 66 66 SSE 6 9 29.99 1016 10 16.0934 0 0
3:53 pm 15:53 Cloudy 72 22.2 58 14.4 61 61 Calm 29.96 1015 10 16.0934 0 0
4:53 pm 16:53 Mostly Cloudy 74 23.3 61 16.1 64 64 S 7 11 29.93 1014 10 16.0934 0 0
5:10 pm 17:10 Cloudy 74 23.3 61 16.1 64 64 S 6 9 29.94 1014 10 16.0934 0 0
5:41 pm 17:41 Partly Cloudy 72 22.2 61 16.1 68 68 S 8 13 29.94 1014 10 16.0934 0 0
5:53 pm 17:53 Mostly Sunny 72 22.2 61 16.1 68 68 SSW 7 11 29.93 1014 10 16.0934 0 0
6:46 pm 18:46 Cloudy with Light Thunderstorms 68 20 62 16.7 81 81 SW 5 7 29.97 1015 4 6.43736 0.01 0.254
6:53 pm 18:53 Cloudy with Thunderstorms 66 18.9 63 17.2 90 90 WSW 3 6 29.96 1015 1.75 2.816345 0.04 1.016
7:12 pm 19:12 Cloudy with Nearby Thunderstorms 65 18.3 64 17.8 97 97 Calm 29.97 1015 1.5 2.41401 0.06 1.524
7:17 pm 19:17 Cloudy with Nearby Thunderstorms 66 18.9 64 17.8 93 93 Calm 29.97 1015 2 3.21868 0.08 2.032
7:21 pm 19:21 Cloudy with Nearby Thunderstorms 65 18.3 64 17.8 97 97 Calm 29.97 1015 1.25 2.011675 0.11 2.794
7:25 pm 19:25 Cloudy with Heavy Thunderstorms 65 18.3 64 17.8 97 97 VRB 3 6 29.97 1015 0.75 1.207005 0.14 3.556
7:35 pm 19:35 Cloudy with Thunderstorms 65 18.3 64 17.8 97 97 ESE 8 13 29.94 1014 1.75 2.816345 0.17 4.318
7:39 pm 19:39 Cloudy with Light Thunderstorms 65 18.3 64 17.8 97 97 ESE 7 11 29.91 1013 3 4.82802 0.17 4.318
7:53 pm 19:53 Mostly Cloudy with Nearby Thunderstorms 66 18.9 63 17.2 90 90 VRB 3 6 29.92 1013 8 12.87472 0.17 4.318
8:02 pm 20:02 Mostly Cloudy 65 18.3 64 17.8 97 97 SW 5 7 29.97 1015 8 12.87472 0 0.0254
8:19 pm 20:19 Mostly Cloudy with Light Rain 65 18.3 64 17.8 97 97 N 9 15 29.97 1015 8 12.87472 0 0.0254
8:22 pm 20:22 Mostly Cloudy with Light Thunderstorms 67 19.4 64 17.8 91 91 VRB 3 6 29.97 1015 8 12.87472 0 0.0254
8:45 pm 20:45 Cloudy with Heavy Thunderstorms 66 18.9 64 17.8 93 93 W 7 11 30 1016 1.75 2.816345 0.17 4.318
8:53 pm 20:53 Cloudy with Thunderstorms 65 18.3 64 17.8 97 97 Calm 29.98 1015 1.25 2.011675 0.28 7.112
8:57 pm 20:57 Cloudy with Light Thunderstorms 65 18.3 65 18.3 100 100 SSE 6 9 29.97 1015 2 3.21868 0 0.0254
9:05 pm 21:05 Mostly Cloudy with Thunderstorms 65 18.3 65 18.3 100 100 VRB 5 7 29.97 1015 4 6.43736 0 0.0254
9:15 pm 21:15 Partly Cloudy with Thunderstorms 65 18.3 64 17.8 97 97 SE 6 9 29.97 1015 6 9.65604 0 0.0254
9:22 pm 21:22 Mostly Clear with Mist and Fog 65 18.3 64 17.8 97 97 Calm 29.97 1015 5 8.0467 0 0.0254
9:53 pm 21:53 Mostly Clear 64 17.8 61 16.1 90 90 VRB 5 7 29.97 1015 10 16.0934 0 0.0254
10:53 pm 22:53 Clear 61 16.1 60 15.6 97 97 E 6 9 29.94 1014 9 14.48406 0 0
11:53 pm 23:53 Clear with Mist and Fog 59 15 58 14.4 96 96 Calm 29.97 1015 6 9.65604 0 0

Powered by AerisWeather